Volver al catálogo

STARLINK-3098

ActivoComunicacionesVLEO
NORAD 49442·PAYLOAD·🇺🇸 United States

Lanzado Nov 13, 2021 desde Cape Canaveral Space Force Station

Loading…

Próximos Pases (próximas 24 horas)

TLE

ActualizadoSource: CelesTrak SupGP

Época: Sep 14, 2026, 21:28 UTC

1 49442C 21104AL  26257.89493056  .00778510  00000+0  14286-1 0  2573
2 49442  53.1591  63.0046 0001341  83.4454  59.1734 15.48281412    11

Sigue STARLINK-3098 en tiempo real con AllMySat

Download on the App Store